星链-31670 (STARLINK-31670 )

导读

STARLINK-31670是美国SpaceX星链星座的第二代低轨通信卫星,于北京时间2024年4月13日由猎鹰9号火箭发射入轨,属于星链全球卫星互联网组网任务。它搭载激光星间链路技术,可实现星间直接通信,为全球偏远地区提供高速低时延宽带互联网接入,进一步扩充了星链星座的规模与覆盖能力,是SpaceX持续推进星链网络部署的重要组成部分。

Basic Information
目录编号:
59490
目录名称:
STARLINK-31670
国际标识:
2024-071G
轨道中心:
EARTH
卫星名称:
星链-31670
卫星全名:
星链-31670 (STARLINK-31670 )
卫星状态:
在轨 (已飞行874 天)
发射日期:
2024-04-13 UTC
国别 :
美国 (US)
星等 :
--
Orbit Information
数据来源 国际轨道数据
星历时间: 2026-09-04T12:37:32+0800
7小时前
查看轨道信息
半长轴: 6861.196km
偏心率: 0.0001868
轨道倾角: 43.004°
近地点辐角 269.989°
升交点赤经 63.066°
平近点角 90.075°
近地点: 481.777km
远地点: 484.341km
周期: 94.267分钟
每日圈数: 15.275768
Detailed Information
固有亮度:
5
最大亮度:
1.5
卫星平台:
Starlink v2.0 mini
覆盖范围:
全球
运营商:
太空探索技术公司
运营商所在国:
美国
制造商(研发单位):
太空探索技术公司
制造商所在国:
美国
使用方式:
暂无
Satellite Introduction
星链(Starlink)计划是由太空探索技术公司(SpaceX)提出的一个巨型低轨卫星互联网星座项目,计划在2019年至2024年间在太空搭建由约1.2万颗卫星组成的“星链”网络,其中1584颗将部署在地球上空550千米处的近地轨道,并从2020年开始工作。该卫星仍在工作。
2D Orbit Map
3D Orbit Map
Orbit Altitude Analysis Chart
Orbit Inclination Analysis Chart
Orbit Comprehensive Analysis Chart
View Comprehensive Chart
Conjunction Data List
Event ID Objects TCA Miss Dist (km) Collision Risk Probability Collision Risk Index (CRI) Action
CDM_260906-213705-949006-292621
2026-09-06T
21:37:21+0000
0.566 km
远距离
1.17113E-4 高风险 0.76
CDM_260906-200105-771705-949021
2026-09-06T
20:01:30+0000
0.649 km
远距离
7.834866E-5 中风险 0.73
CDM_260905-143405-732905-949021
2026-09-05T
14:34:43+0000
1.391 km
极远距离
5.611746E-6 低风险 0.5
CDM_260906-163505-536005-949021
2026-09-06T
16:35:48+0000
1.426 km
极远距离
2.577316E-6 低风险 0.43
CDM_260906-124505-750805-949021
2026-09-06T
12:45:45+0000
1.466 km
极远距离
2.146906E-6 低风险 0.42
CDM_260905-213805-732905-949021
2026-09-05T
21:38:24+0000
1.923 km
极远距离
2.132456E-6 低风险 0.42
CDM_260906-044405-949006-643521
2026-09-06T
04:44:42+0000
1.941 km
极远距离
1.843174E-6 低风险 0.4
CDM_260906-154805-536005-949021
2026-09-06T
15:48:44+0000
1.680 km
极远距离
1.591658E-6 低风险 0.39
CDM_260906-115805-750805-949021
2026-09-06T
11:58:40+0000
1.725 km
极远距离
1.351542E-6 低风险 0.38
CDM_260905-160805-732905-949021
2026-09-05T
16:08:52+0000
2.399 km
极远距离
1.305822E-6 低风险 0.37